"Pseudo-MPEC" for SS26D01

Created 2026 Mar 19 8:35:23 UT using Find_Orb

Click here for an explanation of pseudo-MPECs

 
 Astrometry: 
     SS26D01 0C2026 02 14.35233309 15 12.250+21 21 54.23   ~2RFo 21.40GVNEOCPF52
     SS26D01 0C2026 02 14.36413409 15 09.936+21 21 26.42   ~2RFo 21.97GVNEOCPF52
     SS26D01 0C2026 02 14.37596109 15 07.607+21 20 58.54   ~2RFo 21.89GVNEOCPF52
     SS26D01*0C2026 02 19.28168008 54 48.321+15 46 15.69   ~2R0Z 20.24GVNEOCPT09
     SS26D01 0C2026 02 19.41619008 53 48.853+15 30 56.72   ~2R0Z 20.13GVNEOCPT09
     SS26D01 0C2026 02 20.43725708 46 11.209+13 13 40.69   ~2RFo 20.08GVNEOCPF51
     SS26D01 0C2026 02 20.44784308 46 05.254+13 12 02.37   ~2RFo 20.24GVNEOCPF51

Station data:
(F51) Pan-STARRS 1, Haleakala  (N20.707234 W156.255910)  US/Hawaii.
   Observers J. Herman, T. Lowe, P. Minguez, A. Schultz, I. Smith. Measurers
   K. Chambers, T. de Boer, J. Fairlamb, H. Gao, M. Huber, C.-C. Lin, E.
   Magnier, Y. Ramanjooloo, R. Wainscoat, R. Weryk. 1.8-m Ritchey-Chrétien +
   CCD.
(F52) Pan-STARRS 2, Haleakala  (N20.707382 W156.255910)  US/Hawaii.
   Observers J. Herman, T. Lowe, P. Minguez, A. Schultz, I. Smith. Measurers
   K. Chambers, T. de Boer, J. Fairlamb, H. Gao, M. Huber, C.-C. Lin, E.
   Magnier, Y. Ramanjooloo, R. Wainscoat, R. Weryk. 1.8-m Ritchey-Chrétien +
   CCD.
(T09) Mauna Kea-UH/Tholen NEO Follow-Up (Subaru)  (N19.825504 W155.476019)
   US/Hawaii.  Observer D. J. Tholen. 8.2-m f/2.2 Subaru reflector.

Orbital elements:  SS26D01
   Perihelion 2026 Apr 5.477113 +/- 0.0234 TT = 11:27:02.5 (JD 2461135.977113)
Epoch 2026 Feb 20.0 TT = JDT 2461091.5   Earth MOID: 0.0185   Ma: 0.0194
M 346.305450062 +/- 0.08            (J2000 ecliptic)             AutoNEOCP
n   0.307901053 +/- 0.00166         Peri.  244.428007 +/- 0.007
a   2.172010563 +/- 0.00779         Node   328.332872 +/- 0.0022
e   0.61911864 +/- 0.00149          Incl.    7.046388 +/- 0.013
P   3.20105                H 25.73  G  0.15   U  8.4
q 0.827278318 +/- 0.000274    Q 3.516742807 +/- 0.0159
From 7 observations 2026 Feb. 14-20; mean residual 0".20
Residuals in arcseconds: 
260214 F52  .34+  .01-    260219 T09  .01-  .05+    260220 F51  .19+  .37+    
260214 F52  .01-  .07-    260219 T09  .01-  .03-    
260214 F52  .30-  .05+    260220 F51  .13-  .41-    

Ephemerides (geocentric):
Date (UTC) HH   RA             Dec           delta  r     elong  mag " sig PA
---- --------  ------------   ------------  ------ ------ -----  --- --------
2026 03 19 09  22 13 40.617   -33 00 08.64  .18078 .86508  40.1 27?? 3.21  37
2026 03 19 10  22 13 39.232   -32 59 10.74  .18115 .86490  40.1 27?? 3.22  37
2026 03 19 11  22 13 37.863   -32 58 12.94  .18152 .86473  40.1 27?? 3.23  37
2026 03 19 12  22 13 36.511   -32 57 15.22  .18189 .86455  40.1 27?? 3.25  37
2026 03 19 13  22 13 35.175   -32 56 17.59  .18226 .86437  40.2 27?? 3.26  37
2026 03 19 14  22 13 33.856   -32 55 20.04  .18264 .86420  40.2 27?? 3.27  37
2026 03 19 15  22 13 32.553   -32 54 22.58  .18301 .86402  40.2 27?? 3.28  37
2026 03 19 16  22 13 31.266   -32 53 25.21  .18338 .86384  40.2 27?? 3.29  37
2026 03 19 17  22 13 29.995   -32 52 27.92  .18375 .86367  40.3 27?? 3.30  37
2026 03 19 18  22 13 28.740   -32 51 30.72  .18413 .86350  40.3 27?? 3.32  37
2026 03 19 19  22 13 27.500   -32 50 33.59  .18450 .86332  40.3 27?? 3.33  37
2026 03 19 20  22 13 26.277   -32 49 36.55  .18487 .86315  40.3 27?? 3.34  37
2026 03 19 21  22 13 25.070   -32 48 39.59  .18524 .86297  40.4 27?? 3.35  37
2026 03 19 22  22 13 23.878   -32 47 42.72  .18562 .86280  40.4 27?? 3.36  37
2026 03 19 23  22 13 22.702   -32 46 45.92  .18599 .86263  40.4 27?? 3.38  37
2026 03 20 00  22 13 21.541   -32 45 49.20  .18636 .86246  40.5 27?? 3.39  37
2026 03 20 01  22 13 20.396   -32 44 52.57  .18673 .86228  40.5 27?? 3.40  37
2026 03 20 02  22 13 19.267   -32 43 56.01  .18711 .86211  40.5 27?? 3.41  37
2026 03 20 03  22 13 18.152   -32 42 59.52  .18748 .86194  40.5 27?? 3.43  37
2026 03 20 04  22 13 17.053   -32 42 03.12  .18785 .86177  40.6 27?? 3.44  37
2026 03 20 05  22 13 15.970   -32 41 06.79  .18823 .86160  40.6 27?? 3.45  37
2026 03 20 06  22 13 14.901   -32 40 10.54  .18860 .86143  40.6 27?? 3.46  37
2026 03 20 07  22 13 13.848   -32 39 14.37  .18897 .86126  40.6 27?? 3.47  37
2026 03 20 08  22 13 12.810   -32 38 18.26  .18935 .86109  40.7 27?? 3.49  37
2026 03 20 09  22 13 11.787   -32 37 22.24  .18972 .86092  40.7 27?? 3.50  37
2026 03 20 10  22 13 10.778   -32 36 26.28  .19009 .86075  40.7 27?? 3.51  37
2026 03 20 11  22 13 09.785   -32 35 30.40  .19047 .86058  40.7 27?? 3.53  38
2026 03 20 12  22 13 08.806   -32 34 34.60  .19084 .86042  40.8 27?? 3.54  38
2026 03 20 13  22 13 07.842   -32 33 38.86  .19122 .86025  40.8 27?? 3.55  38
2026 03 20 14  22 13 06.893   -32 32 43.20  .19159 .86008  40.8 27?? 3.56  38
2026 03 20 15  22 13 05.959   -32 31 47.60  .19196 .85992  40.8 27?? 3.58  38
2026 03 20 16  22 13 05.039   -32 30 52.08  .19234 .85975  40.9 27?? 3.59  38
2026 03 20 17  22 13 04.133   -32 29 56.63  .19271 .85958  40.9 27?? 3.60  38
2026 03 20 18  22 13 03.242   -32 29 01.24  .19309 .85942  40.9 27?? 3.62  38
2026 03 20 19  22 13 02.366   -32 28 05.93  .19346 .85925  40.9 27?? 3.63  38
2026 03 20 20  22 13 01.503   -32 27 10.68  .19383 .85909  41.0 27?? 3.64  38
2026 03 20 21  22 13 00.655   -32 26 15.50  .19421 .85892  41.0 27?? 3.66  38
2026 03 20 22  22 12 59.822   -32 25 20.39  .19458 .85876  41.0 27?? 3.67  38
2026 03 20 23  22 12 59.002   -32 24 25.34  .19496 .85860  41.1 27?? 3.68  38
2026 03 21 00  22 12 58.197   -32 23 30.36  .19533 .85843  41.1 27?? 3.70  38
2026 03 21 01  22 12 57.405   -32 22 35.44  .19571 .85827  41.1 27?? 3.71  38
2026 03 21 02  22 12 56.628   -32 21 40.59  .19608 .85811  41.1 27?? 3.72  38
2026 03 21 03  22 12 55.865   -32 20 45.80  .19646 .85795  41.2 27?? 3.74  38
2026 03 21 04  22 12 55.115   -32 19 51.08  .19683 .85779  41.2 27?? 3.75  38
2026 03 21 05  22 12 54.380   -32 18 56.42  .19721 .85762  41.2 27?? 3.76  38
2026 03 21 06  22 12 53.658   -32 18 01.82  .19758 .85746  41.2 27?? 3.78  38
2026 03 21 07  22 12 52.950   -32 17 07.29  .19796 .85730  41.3 27?? 3.79  38
2026 03 21 08  22 12 52.256   -32 16 12.82  .19833 .85714  41.3 27?? 3.81  38